Preview of NWS' New Version of Forecast
This preview is not operational and should not be used for support decisions.

Regional Weather Roundup (RWR)

Issued by National Weather Service (NWS)

                            
000
ASUS45 KABQ 231810
RWRNM 
NEW MEXICO REGIONAL WEATHER ROUNDUP
NATIONAL WEATHER SERVICE ALBUQUERQUE NM
1200 PM MDT SAT MAR 23 2019

NOTE: "FAIR" MEANS FEW OR NO CLOUDS BELOW 12,000 FEET AGL WITH NO
       SIGNIFICANT WEATHER OR OBSTRUCTIONS TO VISION.

      THIS PRODUCT IS RELEASED AS TWO VERSIONS.  ONE VERSION NEAR
      THE TOP OF THE HOUR CONTAINING PRELIMINARY DATA FROM ALBUQUERQUE
      AND OTHER STATIONS.  A FINAL VERSION WITH ADDITIONAL DATA IS 
      ISSUED ABOUT 10 MINUTES AFTER THE HOUR.
 
NMZ501-503-504-510>518-231900-
NORTHWEST PLATEAU/NORTHCENTRAL MOUNTAINS
  
CITY           SKY/WX    TMP DP  RH WIND       PRES   REMARKS
FARMINGTON     FAIR      50  33  52 W12       30.13F                  
6HR MIN TEMP:  28; 6HR MAX TEMP:  50;                                

LOS ALAMOS     FAIR      42  28  58 NE7       30.13F                  
SANTA FE       FAIR      49  26  41 N14       30.10F                  
6HR MIN TEMP:  27; 6HR MAX TEMP:  50;                                

TAOS           FAIR      44  27  51 W13       30.13F                  
ANGEL FIRE       N/A     33  25  72 W10G21    30.10S WCI  25          

$$
NMZ402-403-502-505>509-231900-
WESTCENTRAL MOUNTAINS/SOUTHWEST MOUNTAINS
  
CITY           SKY/WX    TMP DP  RH WIND       PRES   REMARKS
GALLUP         FAIR      49  29  46 W10       30.16S                  
6HR MIN TEMP:  23; 6HR MAX TEMP:  49;                                

GRANTS         FAIR      50  24  35 NW6       30.16F                  
SILVER CITY    FAIR      58  22  24 SW8       30.16F                  

$$
NMZ407-409-411-412-231900-
SOUTHERN DESERTS
  
CITY           SKY/WX    TMP DP  RH WIND       PRES   REMARKS
DEMING         FAIR      60  23  24 SW8       30.14F                  
6HR MIN TEMP:  31; 6HR MAX TEMP:  62;                                

LAS CRUCES     FAIR      64  23  20 S8        30.15F                  
ALAMOGORDO     FAIR      61  23  23 N8        30.14S                  
T OR C         FAIR      61  22  22 CALM      30.11F                  
6HR MIN TEMP:  42; 6HR MAX TEMP:  62;                                


$$
NMZ519>523-231900-
CENTRAL VALLEYS/CENTRAL HIGHLANDS
  
CITY           SKY/WX    TMP DP  RH WIND       PRES   REMARKS
ALBUQUERQUE    CLOUDY    52  27  38 VRB6      30.13F                  
6HR MIN TEMP:  36; 6HR MAX TEMP:  53;                                

DOUBLE EAGLE   PTSUNNY   50  27  40 N6        30.13F                  
MORIARTY ARPT  FAIR      55  27  33 NW17G26   30.11F                  
6HR MIN TEMP:  32; 6HR MAX TEMP:  55;                                

CLINES CORNERS FAIR      47  25  42 W31G45    30.09S                  
6HR MIN TEMP:  31; 6HR MAX TEMP:  47;                                

BELEN          FAIR      56  22  26 W8        30.13F                  
6HR MIN TEMP:  31; 6HR MAX TEMP:  56;                                

SOCORRO        FAIR      60  24  24 CALM      30.11F                  
6HR MIN TEMP:  43; 6HR MAX TEMP:  60;                                


$$
NMZ524>526-539-540-231900-
SOUTHCENTRAL MOUNTAINS
  
CITY           SKY/WX    TMP DP  RH WIND       PRES   REMARKS
RUIDOSO        FAIR      50  19  29 NW8G22    30.16F                  

$$
NMZ527>531-231900-
NORTHEAST HIGHLANDS/NORTHEAST PLAINS
  
CITY           SKY/WX    TMP DP  RH WIND       PRES   REMARKS
LAS VEGAS      FAIR      50  23  34 SE13      30.02S                  
6HR MIN TEMP:  34; 6HR MAX TEMP:  51;                                

RATON          FAIR      54  23  30 S12       29.95S                  
6HR MIN TEMP:  22; 6HR MAX TEMP:  56;                                

CLAYTON        FAIR      55  21  26 S8        29.95S                  
6HR MIN TEMP:  29; 6HR MAX TEMP:  56;                                


$$
NMZ532>537-231900-
EASTCENTRAL PLAINS
  
CITY           SKY/WX    TMP DP  RH WIND       PRES   REMARKS
SANTA ROSA     FAIR      59  25  27 W14G25    30.02F                  
TUCUMCARI      FAIR      62  24  23 NW12G20   29.96F                  
6HR MIN TEMP:  32; 6HR MAX TEMP:  63;                                

CANNON AFB     NOT AVBL                                               
CLOVIS AIRPORT   N/A     61  28  28 W14G21    30.02F                  

$$
NMZ028-029-538-231900-
SOUTHEAST PLAINS
  
CITY           SKY/WX    TMP DP  RH WIND       PRES   REMARKS
ROSWELL        FAIR      68  23  18 VRB5      30.05F                  
6HR MIN TEMP:  33; 6HR MAX TEMP:  68;                                

ARTESIA        FAIR      66  23  19 VRB5G13   30.06F                  
CARLSBAD       FAIR      66  21  18 SE9       30.05F                  
6HR MIN TEMP:  38; 6HR MAX TEMP:  67;                                

HOBBS          SUNNY     66  21  18 W12G18    30.07F                  


$$